Matias Valdes

Olheiro - Universidad Catolica
25 Nov 2027
Quinta-feira
Processo

Personalidade

Adaptabilidade (1) Ambição (3) Controvérsia (11) Lealdade (7) Pressão (6) Profissionalismo (18) Espírito Esportivo (17) Temperamento (5)

Perfil

Estilo de Treinamento Democrático
Licença Continental C
Determinação 7
Gestão de Pessoas 13
Motivação 11
Disciplina 8
Satisfação no Trabalho
100%
Fadiga
0%
Função Olheiro
Salário 68.8K p/s
Contrato 14.03.2029

Desempenho

Comportamento Bom
Eficácia do Treinamento
55%
Desenvolvimento do Jogador
50%
Prevenção de Lesões
65%
Implementação Tática
35%

Eventos Recentes

Participou de uma reunião de recrutamento agora
Participou de uma reunião de recrutamento 7d atrás
Recomendou um alvo de transferência 7d atrás
Participou de uma reunião de recrutamento 7d atrás
Participou de uma reunião de recrutamento 14d atrás
Recomendou um alvo de transferência 14d atrás
Participou de uma reunião de recrutamento 14d atrás
Participou de uma reunião de recrutamento 21d atrás

Monitorando agora

91
Jogador Clube Status Habilidade Confiança Observado Última observação Último voto
Antony Alonso Deportivo Riestra Ativo 118 / 115 40% 1 23.12.2026 -
Mario Stroeykens Anderlecht Ativo 136 / 142 40% 1 21.12.2026 -
Facundo Juárez San Luis Ativo 102 / 106 62% 1 07.12.2026 Aprovar
Santiago Montiel Independiente Ativo 119 / 117 40% 2 30.11.2026 -
Marcelino Moreno Lanús Ativo 132 / 119 40% 1 30.11.2026 -
Lukáš Červ Viktoria Plzen Ativo 139 / 126 40% 1 28.11.2026 -
Rodrigo Herrera Newell's Old Boys Ativo 124 / 118 40% 1 28.11.2026 -
César Ibáñez Huracán Ativo 134 / 119 40% 1 26.11.2026 -
Renzo Tesuri Atlético Tucumán Ativo 120 / 130 40% 1 26.11.2026 -
Rashid Rashid Sparta Prague Ativo 127 / 142 40% 3 25.11.2026 -
Bamba Dieng Crvena Zvezda Ativo 133 / 122 40% 2 25.11.2026 -
Julián Quiñones Lokomotiv Moscow Ativo 135 / 136 40% 3 24.11.2026 -
Rubén Duarte Legia Ativo 123 / 120 40% 1 24.11.2026 -
Ruben van Bommel Ferencvaros Ativo 122 / 135 40% 1 23.11.2026 -
Nicolás Tripichio San Lorenzo Ativo 132 / 121 40% 2 21.11.2026 Mais informações
Leandro Lozano Boca Juniors Ativo 123 / 136 40% 3 21.11.2026 -
Nazareno Colombo Racing Club Ativo 127 / 119 40% 1 21.11.2026 -
Marquinhos Spartak Moscow Ativo 126 / 125 40% 1 21.11.2026 -
Juan Saborido Platense Ativo 117 / 114 40% 1 18.11.2026 -
Facundo Zabala Independiente Ativo 126 / 112 40% 1 16.11.2026 -
Martín Garay Tigre Ativo 125 / 126 40% 1 16.11.2026 -
Razvan Balasa Crvena Zvezda Ativo 155 / 157 40% 2 13.11.2026 -
Santiago González Tigre Ativo 121 / 130 40% 1 10.11.2026 -
Lucas Carrizo Newell's Old Boys Ativo 119 / 117 40% 1 10.11.2026 -
Adrián Spörle Belgrano Ativo 112 / 132 40% 1 09.11.2026 -
Emanuel Coronel Rosario Central Ativo 128 / 118 40% 1 09.11.2026 Mais informações
Martín Ortega Newell's Old Boys Ativo 113 / 111 40% 1 07.11.2026 -
Santiago Longo Belgrano Ativo 123 / 128 40% 1 06.11.2026 -
Juan Infante Atlético Tucumán Ativo 116 / 129 40% 1 06.11.2026 -
Ulises Ortegoza Talleres Ativo 115 / 133 40% 2 05.11.2026 -
Joaquín García Vélez Ativo 126 / 125 40% 2 05.11.2026 -
Derensili Sanches Fernandes Huddersfield Town Ativo 113 / 139 40% 1 05.11.2026 -
Agustín Cardozo Lanús Ativo 127 / 134 40% 1 03.11.2026 -
Ulises Sánchez Gimnasia y Esgrima Ativo 133 / 117 40% 1 31.10.2026 -
Tomás Conechny Racing Club Ativo 121 / 118 40% 1 30.10.2026 -
Alexey Miranchuk St. Gallen Ativo 141 / 123 40% 1 29.10.2026 -
Lewis Morgan SuperSport United Ativo 120 / 121 40% 1 24.10.2026 -
Ivan Toney Al-Ahli Ativo 150 / 143 40% 4 23.10.2026 -
Gastón Lodico Racing Club Ativo 121 / 118 40% 2 23.10.2026 -
Aral Şimşir Trabzonspor Ativo 119 / 114 40% 1 23.10.2026 -
Matko Miljevic Racing Club Ativo 119 / 138 40% 1 23.10.2026 -
Iván Villalba Independiente Rivadavia Ativo 129 / 119 40% 1 20.10.2026 -
Tiago Palacios Estudiantes Ativo 134 / 132 40% 1 18.10.2026 -
Leo Ceara Kashima Antlers Ativo 136 / 127 40% 1 18.10.2026 -
Ola Brynhildsen Bodo/Glimt Ativo 138 / 127 40% 1 18.10.2026 -
Felipe Peña Biafore Lanús Ativo 121 / 125 40% 1 16.10.2026 -
Tomás Silva Platense Ativo 120 / 134 40% 1 16.10.2026 -
Gabriel Neves Estudiantes Ativo 132 / 117 40% 1 15.10.2026 -
Lucas Souto Defensa y Justicia Ativo 133 / 112 40% 1 15.10.2026 -
Yusuke Matsuo Esteghlal Ativo 118 / 122 40% 1 14.10.2026 -
Erison Kawasaki Frontale Ativo 115 / 118 40% 2 10.10.2026 -
Mojmír Chytil NK Maribor Ativo 143 / 145 40% 1 10.10.2026 -
Franco Ibarra Rosario Central Ativo 133 / 122 40% 1 06.10.2026 -
Antonio Galeano Remo Stars Ativo 114 / 120 40% 2 05.10.2026 -
Leonardo Godoy Independiente Ativo 127 / 134 40% 1 05.10.2026 -
Nahuel Banegas Tigre Ativo 131 / 118 40% 1 05.10.2026 -
Sergi Palencia Los Angeles Football Club Ativo 138 / 142 40% 2 03.10.2026 -
Jonathan Bamba Chicago Fire Ativo 127 / 126 40% 2 03.10.2026 -
Wessam Abou Ali Columbus Crew Ativo 140 / 132 40% 1 03.10.2026 -
Kein Sato FC Tokyo Ativo 132 / 137 40% 1 29.09.2026 -
Takuma Asano Sanfrecce Hiroshima Ativo 129 / 140 40% 5 28.09.2026 -
Philip Zinckernagel Chicago Fire Ativo 142 / 146 40% 1 25.09.2026 -
Bénie Traoré New York City Ativo 125 / 113 40% 2 24.09.2026 -
Reda Khadra Qarabag Ativo 128 / 129 40% 1 24.09.2026 -
Elias Achouri San Diego Football Club Ativo 127 / 123 40% 1 23.09.2026 -
Luciano Gondou CSKA Moscow Ativo 117 / 138 40% 1 22.09.2026 -
Antony Portland Timbers Ativo 140 / 116 40% 1 21.09.2026 -
Martín Ojeda Orlando City Ativo 131 / 119 40% 1 20.09.2026 -
Ryan Gauld Vancouver Whitecaps Ativo 147 / 119 40% 1 19.09.2026 -
Anton Salétros Chicago Fire Ativo 119 / 140 40% 1 19.09.2026 -
Sergio Reguilón Inter Miami CF Ativo 136 / 130 40% 1 18.09.2026 -
Pavel Bucha FC Cincinnati Ativo 132 / 115 40% 1 18.09.2026 -
Steven Alzate Atlanta United FC Ativo 129 / 132 40% 1 17.09.2026 -
Breel Embolo Atlanta United FC Ativo 136 / 129 40% 1 17.09.2026 -
Franco Cristaldo Talleres Ativo 118 / 123 40% 1 14.09.2026 -
Francisco González Metilli Belgrano Ativo 119 / 113 40% 1 12.09.2026 -
Aliou Dieng Valencia Ativo 124 / 135 40% 1 12.09.2026 -
Felipe Augusto Zenit Ativo 129 / 122 40% 1 07.09.2026 -
Myrto Uzuni Austin FC Ativo 116 / 146 40% 1 31.08.2026 -
Maurits Kjærgaard Red Bull Salzburg Ativo 140 / 132 40% 1 30.08.2026 -
Luka Jović AEK Ativo 123 / 118 40% 1 29.08.2026 -
Sam Surridge Nashville SC Ativo 118 / 137 40% 1 29.08.2026 -
Youssef En-Nesyri Al-Ittihad Ativo 127 / 135 40% 3 26.08.2026 -
Musa Barrow Al-Khaleej Ativo 131 / 128 40% 1 15.08.2026 -
Kerem Aktürkoğlu Fenerbahce Ativo 126 / 147 40% 1 14.08.2026 -
Marcel Hartel St. Louis CITY SC Ativo 128 / 142 40% 1 07.08.2026 -
Bryan Ramírez FC Cincinnati Ativo 133 / 121 40% 1 04.08.2026 -
Lasse Berg Johnsen Sporting Kansas City Ativo 116 / 106 40% 1 04.08.2026 -
Cristian Roldan Seattle Sounders Ativo 135 / 112 40% 1 03.08.2026 -
Japhet Sery Larsen Philadelphia Union Ativo 137 / 117 40% 1 03.08.2026 -
Alberto Reina Oviedo Ativo 127 / 113 40% 1 01.08.2026 -